TimeMST,TemperatureF,Dew PointF,Humidity,Sea Level PressureIn,VisibilityMPH,Wind Direction,Wind SpeedMPH,Gust SpeedMPH,PrecipitationIn,Events,Conditions,WindDirDegrees,DateUTC
12:15 AM,19.4,15.8,86,30.06,10.0,Calm,Calm,-,N/A,,Clear,0,2012-12-04 07:15:00
12:35 AM,17.6,15.8,93,30.07,10.0,NNW,3.5,-,N/A,,Clear,330,2012-12-04 07:35:00
12:55 AM,19.4,15.8,86,30.08,10.0,Calm,Calm,-,N/A,,Clear,0,2012-12-04 07:55:00
1:15 AM,17.6,14.0,86,30.09,10.0,North,4.6,-,N/A,,Clear,350,2012-12-04 08:15:00
1:55 AM,19.4,14.0,80,30.10,10.0,NNW,4.6,-,N/A,,Clear,340,2012-12-04 08:55:00
2:35 AM,19.4,15.8,86,30.12,10.0,North,5.8,-,N/A,,Clear,360,2012-12-04 09:35:00
2:55 AM,21.2,17.6,86,30.13,10.0,North,4.6,-,N/A,,Clear,360,2012-12-04 09:55:00
3:15 AM,19.4,15.8,86,30.13,10.0,North,6.9,-,N/A,,Clear,10,2012-12-04 10:15:00
3:35 AM,19.4,12.2,74,30.13,10.0,North,5.8,-,N/A,,Clear,10,2012-12-04 10:35:00
3:55 AM,17.6,12.2,79,30.14,10.0,North,4.6,-,N/A,,Clear,350,2012-12-04 10:55:00
4:15 AM,17.6,12.2,79,30.16,10.0,North,4.6,-,N/A,,Clear,360,2012-12-04 11:15:00
4:35 AM,15.8,12.2,86,30.17,10.0,North,4.6,-,N/A,,Clear,350,2012-12-04 11:35:00
4:55 AM,17.6,12.2,79,30.17,10.0,North,4.6,-,N/A,,Clear,360,2012-12-04 11:55:00
5:15 AM,17.6,12.2,79,30.17,10.0,North,6.9,-,N/A,,Clear,10,2012-12-04 12:15:00
5:35 AM,19.4,14.0,80,30.17,10.0,NE,5.8,-,N/A,,Clear,40,2012-12-04 12:35:00
5:55 AM,19.4,12.2,74,30.18,10.0,NE,4.6,-,N/A,,Clear,50,2012-12-04 12:55:00
6:15 AM,17.6,12.2,79,30.18,10.0,ENE,4.6,-,N/A,,Clear,60,2012-12-04 13:15:00
6:35 AM,19.4,12.2,74,30.18,10.0,NNE,4.6,-,N/A,,Clear,30,2012-12-04 13:35:00
6:55 AM,17.6,12.2,79,30.19,10.0,NNE,4.6,-,N/A,,Clear,20,2012-12-04 13:55:00
7:35 AM,17.6,12.2,79,30.20,10.0,NNE,5.8,-,N/A,,Clear,20,2012-12-04 14:35:00
7:55 AM,17.6,12.2,79,30.20,10.0,NNE,8.1,-,N/A,,Clear,30,2012-12-04 14:55:00
8:15 AM,17.6,12.2,79,30.20,10.0,NNE,5.8,-,N/A,,Clear,30,2012-12-04 15:15:00
8:35 AM,17.6,12.2,79,30.20,10.0,NE,5.8,-,N/A,,Clear,40,2012-12-04 15:35:00
8:55 AM,19.4,12.2,74,30.19,10.0,NE,6.9,-,N/A,,Clear,40,2012-12-04 15:55:00
9:15 AM,19.4,14.0,80,30.19,10.0,NE,4.6,-,N/A,,Clear,40,2012-12-04 16:15:00
9:35 AM,19.4,14.0,80,30.19,10.0,NE,5.8,-,N/A,,Clear,40,2012-12-04 16:35:00
9:55 AM,19.4,15.8,86,30.19,10.0,North,4.6,-,N/A,,Clear,10,2012-12-04 16:55:00
10:15 AM,21.2,15.8,80,30.19,10.0,NNE,4.6,-,N/A,,Clear,20,2012-12-04 17:15:00
10:35 AM,21.2,15.8,80,30.19,10.0,Calm,Calm,-,N/A,,Clear,0,2012-12-04 17:35:00
11:15 AM,23.0,17.6,80,30.18,10.0,North,4.6,-,N/A,,Clear,10,2012-12-04 18:15:00
11:35 AM,23.0,19.4,86,30.16,10.0,North,4.6,-,N/A,,Clear,10,2012-12-04 18:35:00
11:55 AM,24.8,19.4,80,30.16,10.0,North,4.6,-,N/A,,Clear,360,2012-12-04 18:55:00
12:15 PM,26.6,19.4,74,30.14,10.0,NNE,5.8,-,N/A,,Clear,30,2012-12-04 19:15:00
12:35 PM,26.6,21.2,80,30.13,10.0,NE,5.8,-,N/A,,Clear,40,2012-12-04 19:35:00
12:55 PM,28.4,21.2,74,30.13,10.0,ENE,4.6,-,N/A,,Clear,70,2012-12-04 19:55:00
1:15 PM,30.2,21.2,69,30.12,10.0,East,4.6,-,N/A,,Clear,90,2012-12-04 20:15:00
1:35 PM,32.0,21.2,64,30.11,10.0,East,5.8,-,N/A,,Clear,80,2012-12-04 20:35:00
1:55 PM,32.0,23.0,69,30.10,10.0,ENE,3.5,-,N/A,,Clear,70,2012-12-04 20:55:00
2:15 PM,33.8,24.8,70,30.09,10.0,East,4.6,-,N/A,,Clear,80,2012-12-04 21:15:00
2:35 PM,33.8,24.8,70,30.08,10.0,East,5.8,-,N/A,,Clear,90,2012-12-04 21:35:00
2:55 PM,33.8,24.8,70,30.07,10.0,ESE,8.1,-,N/A,,Clear,110,2012-12-04 21:55:00
3:15 PM,33.8,24.8,70,30.06,10.0,ESE,8.1,-,N/A,,Clear,110,2012-12-04 22:15:00
3:35 PM,33.8,24.8,70,30.05,10.0,ESE,8.1,-,N/A,,Partly Cloudy,110,2012-12-04 22:35:00
3:55 PM,32.0,24.8,75,30.05,10.0,East,5.8,-,N/A,,Mostly Cloudy,80,2012-12-04 22:55:00
4:15 PM,32.0,24.8,75,30.06,10.0,East,5.8,-,N/A,,Overcast,100,2012-12-04 23:15:00
4:35 PM,32.0,24.8,75,30.06,10.0,East,5.8,-,N/A,,Overcast,90,2012-12-04 23:35:00
4:55 PM,32.0,24.8,75,30.05,10.0,East,8.1,-,N/A,,Overcast,90,2012-12-04 23:55:00
5:15 PM,30.2,23.0,75,30.04,10.0,East,6.9,-,N/A,,Overcast,90,2012-12-05 00:15:00
5:35 PM,30.2,24.8,80,30.04,10.0,ESE,6.9,-,N/A,,Overcast,110,2012-12-05 00:35:00
5:55 PM,30.2,23.0,75,30.04,10.0,ESE,6.9,-,N/A,,Mostly Cloudy,110,2012-12-05 00:55:00
6:35 PM,28.4,21.2,74,30.03,10.0,Calm,Calm,-,N/A,,Clear,0,2012-12-05 01:35:00
6:56 PM,28.4,21.2,74,30.03,10.0,Calm,Calm,-,N/A,,Partly Cloudy,0,2012-12-05 01:56:00
7:15 PM,30.2,24.8,80,30.03,10.0,Calm,Calm,-,N/A,,Partly Cloudy,0,2012-12-05 02:15:00
7:35 PM,28.4,23.0,80,30.02,10.0,South,5.8,-,N/A,,Clear,180,2012-12-05 02:35:00
7:55 PM,30.2,23.0,75,30.01,10.0,SSE,6.9,-,N/A,,Clear,150,2012-12-05 02:55:00
8:15 PM,30.2,24.8,80,30.01,10.0,South,8.1,-,N/A,,Clear,180,2012-12-05 03:15:00
8:35 PM,30.2,24.8,80,30.01,10.0,South,9.2,-,N/A,,Clear,180,2012-12-05 03:35:00
8:55 PM,32.0,23.0,69,29.99,10.0,South,11.5,-,N/A,,Clear,170,2012-12-05 03:55:00
9:15 PM,32.0,23.0,69,30.00,10.0,SSE,9.2,-,N/A,,Clear,160,2012-12-05 04:15:00
9:35 PM,30.2,23.0,75,30.00,10.0,SSE,9.2,-,N/A,,Clear,150,2012-12-05 04:35:00
9:55 PM,30.2,24.8,80,29.99,10.0,SSE,8.1,-,N/A,,Clear,150,2012-12-05 04:55:00
10:15 PM,30.2,24.8,80,29.97,10.0,SSE,9.2,-,N/A,,Clear,150,2012-12-05 05:15:00
10:35 PM,30.2,23.0,75,29.97,10.0,SSE,9.2,-,N/A,,Clear,150,2012-12-05 05:35:00
10:55 PM,30.2,23.0,75,29.96,10.0,SE,10.4,-,N/A,,Clear,140,2012-12-05 05:55:00
11:15 PM,32.0,24.8,75,29.96,10.0,SSE,8.1,-,N/A,,Clear,160,2012-12-05 06:15:00
11:35 PM,30.2,24.8,80,29.95,10.0,SSE,5.8,-,N/A,,Clear,160,2012-12-05 06:35:00
11:55 PM,30.2,24.8,80,29.94,10.0,South,4.6,-,N/A,,Clear,170,2012-12-05 06:55:00